Location: Newark
(35.9031°N, 139.7175°E)
Time: 22:18:04
(UTC+00:00)

Vanguard 3 - Visible Passes

Search period start: 25 May 2020 00:00
Search period end: 04 June 2020 00:00
Orbit: 510 x 3261 km, 33.3° (Epoch: 24 May)

Date Brightness Start Highest point End Pass type
(mag) Time Alt. Az. Time Alt. Az. Time Alt. Az.
25 May 10.7 15:42:39 15° SE 15:42:39 15° SE 15:49:04 10° ESE visible
25 May 9.7 17:47:10 19° SSW 17:56:40 37° SSE 18:05:10 10° E visible
26 May 10.2 16:36:49 25° S 16:41:13 28° SSE 16:50:36 10° E visible
26 May 9.1 18:41:24 10° SW 18:55:23 54° SSE 19:03:21 10° E visible
27 May 10.6 15:26:23 20° SE 15:26:23 20° SE 15:34:34 10° ESE visible
27 May 9.6 17:30:53 23° SSW 17:40:09 44° SSE 17:49:35 10° E visible
28 May 10.1 16:20:22 31° S 16:24:29 34° SSE 16:35:06 10° E visible
28 May 9.2 18:24:52 13° WSW 18:38:57 60° SSE 18:47:41 10° E visible
29 May 10.5 15:09:46 24° SE 15:09:46 24° SE 15:19:24 10° E visible
29 May 9.6 17:14:15 28° SW 17:23:29 50° SSE 17:33:51 10° E visible
30 May 11.0 13:59:05 12° ESE 13:59:05 12° ESE 14:01:05 10° ESE visible
30 May 10.0 16:03:34 36° S 16:07:36 40° SSE 16:19:23 10° E visible
30 May 9.2 18:08:02 15° WSW 18:22:25 66° SSE 18:31:55 10° E visible
31 May 10.4 14:52:46 29° SE 14:52:46 29° SE 15:03:50 10° E visible
31 May 9.6 16:57:14 31° SW 17:06:41 56° SSE 17:18:00 10° E visible
01 Jun 10.9 13:41:51 16° ESE 13:41:51 16° ESE 13:46:15 10° E visible
01 Jun 9.9 15:46:19 41° S 15:50:34 45° SSE 16:03:28 10° E visible
01 Jun 9.3 17:50:47 16° WSW 18:05:45 71° SSE 18:16:05 10° E visible
02 Jun 10.3 14:35:16 34° SE 14:35:16 34° SE 14:47:57 10° E visible
02 Jun 9.6 16:39:43 32° SW 16:49:45 62° SSE 17:02:03 10° E visible
02 Jun 9.1 18:48:18 10° W 19:04:45 79° S 19:13:57 10° E visible
03 Jun 10.8 13:24:04 20° ESE 13:24:04 20° ESE 13:30:45 10° E visible
03 Jun 9.9 15:28:30 44° S 15:33:24 51° SSE 15:47:25 10° E visible
03 Jun 9.4 17:32:56 15° WSW 17:49:00 75° S 18:00:12 10° E visible
